Regional Weather Roundup
Issued by NWS

Home | Current Version | Previous Version | Text Only | Print | Product List | Glossary On
Versions: 1 2 3 4 5 6 7 8 9 10 11 12 13 14 15 16 17 18 19 20 21 22 23 24 25 26 27 28 29 30 31 32 33 34 35 36 37 38 39 40 41 42 43 44 45 46 47 48 49 50
000
ASUS43 KDMX 262107
RWRIA

WEATHER ROUNDUP FOR IOWA
NATIONAL WEATHER SERVICE DES MOINES IA
400 PM CDT TUE AUG 26 2014

NOTE: "FAIR" INDICATES FEW OR NO CLOUDS BELOW 12,000 FEET WITH NO
SIGNIFICANT WEATHER AND/OR OBSTRUCTIONS TO VISIBILITY.

* - THESE STATIONS ARE NOT NWS STATIONS...THUS NOT UNDER NWS
QUALITY CONTROL.  THEY ALSO DO NOT REPORT WEATHER SUCH
AS PRECIPITATION OR FOG.

IAZ001>003-012>014-020>022-031>034-043>046-262200-
   NORTHWEST IOWA

CITY           SKY/WX    TMP DP  RH WIND       PRES   REMARKS
CARROLL *      SUNNY     73  61  64 CALM      30.15F
CHEROKEE *     LGT RAIN  70  61  73 NE5       30.17F
DENISON *      SUNNY     73  63  68 E5        30.14S
LE MARS *      CLOUDY    70  59  68 CALM      30.17F
ORANGE CITY *  SUNNY     72  57  60 CALM      30.18F
SHELDON *      SUNNY     68  57  68 CALM      30.17F
SIOUX CITY     PTSUNNY   73  60  63 NE6       30.15F
SPENCER        PTSUNNY   69  56  62 SE5       30.18S
STORM LAKE *   SUNNY     70  61  73 CALM      30.17F
$$

IAZ055>058-069>071-079>083-090>094-262200-
   SOUTHWEST IOWA

CITY           SKY/WX    TMP DP  RH WIND       PRES   REMARKS
ATLANTIC *     SUNNY     77  66  69 NE8       30.13S
AUDUBON *      SUNNY     79  70  73 NE5       30.15F HX  81
CLARINDA *     MOSUNNY   79  70  73 CALM      30.13F HX  81
COUNCIL BLFS * PTSUNNY   75  70  83 E8        30.12F
CRESTON *      SUNNY     79  68  69 VRB6      30.14F HX  81
HARLAN  *      SUNNY     73  66  78 VRB6      30.18S
LAMONI         MOSUNNY   79  70  74 NE7       30.13F HX  82
RED OAK *      CLOUDY    79  68  69 VRB3      30.14S HX  81
SHENANDOAH *   CLOUDY    79  70  73 VRB3      30.13S HX  81
$$

IAZ047>049-059>061-072>074-084-262200-
   CENTRAL IOWA

CITY           SKY/WX    TMP DP  RH WIND       PRES   REMARKS
AMES           SUNNY     77  65  66 N3        30.14S
ANKENY *       MOSUNNY   75  64  69 CALM      30.13F
CHARITON *     SUNNY     79  68  69 NE5       30.13S HX  81
DES MOINES     MOSUNNY   80  64  58 SE6       30.12F HX  82
GRINNELL*      PTSUNNY   77  64  65 CALM      30.14F
KNOXVILLE *    SUNNY     77  64  65 N5        30.11F
MARSHALLTOWN   MOSUNNY   77  64  64 VRB5      30.14S
PELLA *        MOSUNNY   81  66  61 N3        30.13F HX  83
PERRY *          N/A     75  63  64 N3        30.14F
$$

IAZ004>006-015-016-023>025-035-036-262200-
   NORTH CENTRAL IOWA

CITY           SKY/WX    TMP DP  RH WIND       PRES   REMARKS
ALGONA *       SUNNY     70  57  64 NE7       30.17S
CLARION *      SUNNY     75  61  60 N7        30.14F
ESTHERVILLE    MOSUNNY   71  56  58 NW6       30.18S
FORT DODGE *   MOSUNNY   72  61  68 NW5       30.16S
MASON CITY     MOSUNNY   74  55  51 N6        30.17F
FOREST CITY *  SUNNY     73  57  56 N5        30.16S
IOWA FALLS *     N/A     75  61  60 N6        30.15F
$$

IAZ007>011-017>019-026>030-037>042-050>054-066-262200-
   NORTHEAST IOWA

CITY           SKY/WX    TMP DP  RH WIND       PRES   REMARKS
CEDAR RAPIDS   SUNNY     79  64  60 NW6       30.10F HX  81
CHARLES CITY * SUNNY     73  57  56 CALM      30.15F
CLINTON *      SUNNY     79  66  65 N3        30.13S HX  81
DECORAH *      SUNNY     73  57  56 NW5       30.14F
DUBUQUE        SUNNY     78  61  55 VRB3      30.13S HX  80
MONTICELLO *   SUNNY     79  64  61 CALM      30.11F HX  81
OELWEIN *      SUNNY     75  61  60 NW6       30.14F
WATERLOO       MOSUNNY   78  60  53 N9        30.11F
$$

IAZ064-065-067-068-078-262200-
   EAST CENTRAL IOWA

CITY           SKY/WX    TMP DP  RH WIND       PRES   REMARKS
DAVENPORT      SUNNY     81  66  60 E3        30.11S HX  83
IOWA CITY      SUNNY     80  65  59 VRB7      30.11F HX  82
MT. PLEASANT * MOSUNNY   84  64  51 N8        30.10S HX  86
MUSCATINE *    SUNNY     82  66  57 VRB5G12   30.10S HX  85
QUAD CITIES    MOSUNNY   84  63  49 N6        30.09F HX  85
$$

IAZ062-063-075>077-085>089-095>099-262200-
   SOUTHEAST IOWA

CITY           SKY/WX    TMP DP  RH WIND       PRES   REMARKS
BURLINGTON     MOSUNNY   83  71  67 NE8       30.08F HX  87
FAIRFIELD *    SUNNY     79  68  69 NE6       30.11S HX  81
FORT MADISON * SUNNY     84  73  70 CALM      30.10R HX  91
KEOKUK *       SUNNY     86  72  62 N7        30.07S HX  92
OSKALOOSA *      N/A     81  66  61 N5        30.12S HX  83
CENTERVILLE *  MOSUNNY   79  70  73 CALM      30.13S HX  81
OTTUMWA        PTSUNNY   82  67  60 N5        30.11S HX  84
WASHINGTON *   SUNNY     82  70  65 NE6       30.10F HX  86
$$

ABBREVIATIONS USED IN REMARKS
   TC - TEMPERATURES IN CELSIUS
  WCI - WIND CHILL INDEX
   HX - HEAT INDEX
  VSB - VISIBILITY
$$




USA.gov is the U.S. government's official web portal to all federal, state and local government web resources and services.